Facebook Twitter

Wetterstation Kufstein

Messwerte
  Temperatur Wetter Niederschlag Luftdruck Wind
Fr, 02:00 Uhr 11° - 0.1 mm 1019 hPa 0 km/h
Fr, 01:00 Uhr 11° - 0.0 mm 1018 hPa 7 km/h NO
Fr, 00:00 Uhr 11° - 0 mm 1019 hPa 0 km/h NO
Do, 23:00 Uhr 11° - 0.1 mm 1019 hPa 4 km/h O
Do, 22:00 Uhr 11° - 0 mm 1018 hPa 7 km/h NO
Do, 21:00 Uhr 12° - 0.1 mm 1017 hPa 7 km/h NO
Do, 20:00 Uhr 13° - 11 mm 1017 hPa 11 km/h NO
Do, 19:00 Uhr 12° - 0.1 mm 1015 hPa 11 km/h NO
Do, 18:00 Uhr 12° - 0.0 mm 1015 hPa 4 km/h SW
Do, 17:00 Uhr 16° - 0.0 mm 1013 hPa 4 km/h W
Do, 16:00 Uhr 17° Schauer 1 mm 1012 hPa 7 km/h O
Do, 15:00 Uhr 19° - 0.1 mm 1012 hPa 14 km/h O
Do, 14:00 Uhr 20° - 0 mm 1013 hPa 11 km/h NO
Do, 13:00 Uhr 19° - 0 mm 1013 hPa 11 km/h O
Do, 12:00 Uhr 17° - 0.0 mm 1014 hPa 7 km/h O
Do, 11:00 Uhr 16° - 0 mm 1015 hPa 4 km/h SO
Do, 10:00 Uhr 15° - 0 mm 1016 hPa 0 km/h SO
Do, 09:00 Uhr 14° - 0.0 mm 1017 hPa 4 km/h O
Do, 08:00 Uhr 12° - 3.0 mm 1018 hPa 7 km/h W
Do, 07:00 Uhr 12° 3 mm 1018 hPa 0 km/h W

Alle Zeitangaben MESZ